Weather History for Kansas City International, MO

Change the Weather History Date:

Wednesday, April 10, 2013

  Actual Average Record
Temperature  
Mean Temperature 42 °F 53 °F  
Max Temperature 47 °F 64 °F 92 °F (1930)
Min Temperature 36 °F 42 °F 22 °F (1989)
Degree Days  
Heating Degree Days 23 13  
Month to date heating degree days 139 140  
Since 1 July heating degree days 4707 4831  
Cooling Degree Days 0 1  
Month to date cooling degree days 0 4  
Year to date cooling degree days 0 7  
Moisture  
Dew Point 41 °F    
Average Humidity 96    
Maximum Humidity 100    
Minimum Humidity 92    
Precipitation  
Precipitation 0.87 in 0.11 in 1.81 in (1944)
Month to date precipitation 2.15 1.02  
Year to date precipitation 6.99 5.92  
Snow  
Snow 0.00 in 0.00 in 1.10 in (1997)
Month to date snowfall 0.0 0.3  
Since 1 July snowfall 31.3 18.5  
Snow Depth 0.00 in    
Sea Level Pressure  
Sea Level Pressure 29.82 in    
Wind  
Wind Speed 11 mph (NW)    
Max Wind Speed 31 mph    
Max Gust Speed 40 mph    
Visibility 6 miles    
Events Rain , Thunderstorm    
T = Trace of Precipitation, MM = Missing Value Source: NWS Daily Summary

Daily Weather History Graph

Daily Weather History Graph

Search for Another Location

Airport:

Trip Planner

Search our weather history database for the weather conditions in past years. The results will help you decide how hot, cold, wet, or windy it might be!

Date:

Astronomy

Apr. 10, 2013 Rise Set
Actual Time 6:49 AM CDT 7:51 PM CDT
Civil Twilight 6:21 AM CDT 8:19 PM CDT
Nautical Twilight 5:48 AM CDT 8:52 PM CDT
Astronomical Twilight 5:14 AM CDT 9:26 PM CDT
Moon 6:45 AM CDT (4/10) 8:28 PM CDT (4/10)
Length of Visible Light 13h 57m
Length of Day
13h 02m
New Moon, 0% of the Moon is Illuminated
Apr 10
New Moon
Apr 18
First Quarter
Apr 25
Full
May 2
Last Quarter
May 9
New

Hourly Weather History & Observations

Time (CDT) Temp. Windchill Dew Point Humidity Pressure Visibility Wind Dir Wind Speed Gust Speed Precip Events Conditions
12:01 AM 51.8 °F - 48.2 °F 88% 29.76 in 10.0 mi NNW 12.7 mph - 0.00 in Thunderstorm Unknown
12:30 AM 50.0 °F - 46.4 °F 87% 29.82 in 7.0 mi WNW 19.6 mph 26.5 mph 0.03 in Rain , Thunderstorm Thunderstorms and Rain
12:34 AM 48.2 °F - 46.4 °F 93% 29.82 in 2.0 mi NW 28.8 mph 38.0 mph 0.18 in Rain , Thunderstorm Thunderstorms and Rain
12:41 AM 46.4 °F 38.3 °F 44.6 °F 93% 29.83 in 1.0 mi NW 23.0 mph 38.0 mph 0.39 in Rain , Thunderstorm Heavy Thunderstorms and Rain
12:53 AM 46.0 °F 38.0 °F 43.0 °F 89% 29.84 in 3.0 mi NW 21.9 mph 35.7 mph 0.42 in Rain , Thunderstorm Light Thunderstorms and Rain
1:24 AM 44.6 °F 37.4 °F 39.2 °F 81% 29.84 in 10.0 mi North 16.1 mph 25.3 mph 0.06 in Rain , Thunderstorm Light Thunderstorms and Rain
1:26 AM 44.6 °F 38.1 °F 39.2 °F 81% 29.84 in 10.0 mi North 13.8 mph 23.0 mph 0.06 in Rain , Thunderstorm Light Thunderstorms and Rain
1:50 AM 44.6 °F 39.2 °F 42.8 °F 93% 29.82 in 8.0 mi North 10.4 mph - 0.11 in Rain , Thunderstorm Light Thunderstorms and Rain
1:53 AM 45.0 °F 40.6 °F 42.1 °F 90% 29.83 in 9.0 mi NNW 8.1 mph - 0.11 in Rain , Thunderstorm Light Thunderstorms and Rain
2:25 AM 44.6 °F 39.2 °F 42.8 °F 93% 29.81 in 10.0 mi North 10.4 mph - 0.03 in Rain Light Rain
2:53 AM 46.0 °F 39.6 °F 43.0 °F 89% 29.72 in 10.0 mi NE 15.0 mph 24.2 mph 0.04 in   Light Drizzle
3:05 AM 46.4 °F 40.4 °F 44.6 °F 93% 29.73 in 10.0 mi NE 13.8 mph - 0.00 in   Light Drizzle
3:36 AM 46.4 °F 42.4 °F 44.6 °F 93% 29.73 in 10.0 mi NE 8.1 mph - N/A   Light Drizzle
3:53 AM 46.9 °F - 45.0 °F 93% 29.77 in 10.0 mi West 6.9 mph - 0.00 in Thunderstorm Thunderstorm
4:00 AM 46.4 °F - 44.6 °F 93% 29.79 in 6.0 mi Calm Calm - 0.01 in Rain , Thunderstorm Light Thunderstorms and Rain
4:53 AM 44.1 °F 38.6 °F 44.1 °F 100% 29.76 in 4.0 mi North 10.4 mph - 0.15 in Rain , Thunderstorm Thunderstorms and Rain
5:13 AM 44.6 °F 38.8 °F 42.8 °F 93% 29.84 in 10.0 mi WNW 11.5 mph - 0.02 in Rain Light Rain
5:53 AM 43.0 °F 38.8 °F 43.0 °F 100% 29.85 in 10.0 mi WNW 6.9 mph - 0.04 in   Overcast
6:53 AM 43.0 °F 36.0 °F 41.0 °F 93% 29.88 in 10.0 mi WNW 13.8 mph - 0.00 in   Light Drizzle
7:53 AM 39.9 °F 34.5 °F 39.9 °F 100% 29.85 in 10.0 mi NNW 8.1 mph - 0.00 in   Overcast
8:53 AM 39.9 °F 35.1 °F 39.0 °F 97% 29.89 in 10.0 mi WNW 6.9 mph - N/A   Overcast
9:53 AM 39.9 °F 33.9 °F 39.0 °F 97% 29.85 in 3.0 mi NNW 9.2 mph - 0.00 in Rain Light Rain
10:36 AM 39.2 °F 33.0 °F 37.4 °F 93% 29.93 in 2.0 mi WSW 9.2 mph - 0.05 in Rain Rain
10:44 AM 39.2 °F 33.6 °F 37.4 °F 93% 29.93 in 2.0 mi West 8.1 mph - 0.09 in Rain Rain
10:53 AM 39.9 °F 33.4 °F 37.9 °F 93% 29.91 in 2.0 mi WNW 10.4 mph - 0.11 in Rain Rain
11:45 AM 41.0 °F 35.2 °F 39.2 °F 93% 29.86 in 4.0 mi NNW 9.2 mph - 0.05 in Rain Light Rain
11:53 AM 41.0 °F 34.3 °F 41.0 °F 100% 29.89 in 4.0 mi NW 11.5 mph - 0.05 in Rain Light Rain
12:53 PM 41.0 °F 34.7 °F 39.2 °F 93% 29.85 in 3.0 mi WNW 10.4 mph - N/A Rain Light Rain
1:53 PM 43.0 °F 37.7 °F 42.1 °F 97% 29.84 in 10.0 mi NW 9.2 mph - 0.00 in   Overcast
2:30 PM 42.8 °F 35.4 °F 41.0 °F 93% 29.86 in 2.5 mi WNW 15.0 mph 23.0 mph 0.06 in Rain Heavy Rain
2:53 PM 41.0 °F 33.5 °F 39.9 °F 96% 29.85 in 2.5 mi NW 13.8 mph 21.9 mph 0.14 in Rain Rain
3:00 PM 41.0 °F 33.5 °F 39.2 °F 93% 29.84 in 6.0 mi NW 13.8 mph 24.2 mph 0.01 in Rain Light Rain
3:34 PM 41.0 °F 34.3 °F 39.2 °F 93% 29.82 in 10.0 mi NNW 11.5 mph - 0.03 in Rain Light Rain
3:53 PM 41.0 °F 33.9 °F 39.0 °F 93% 29.81 in 8.0 mi NNW 12.7 mph - 0.04 in Rain Light Rain
4:17 PM 42.8 °F 37.5 °F 41.0 °F 93% 29.79 in 7.0 mi NNW 9.2 mph - 0.02 in Rain Light Rain
4:53 PM 42.1 °F 34.9 °F 41.0 °F 96% 29.76 in 10.0 mi NNW 13.8 mph - 0.04 in Rain Light Rain
5:53 PM 42.1 °F 36.6 °F 41.0 °F 96% 29.77 in 5.0 mi NW 9.2 mph - 0.01 in Rain Light Rain
6:11 PM 42.8 °F 38.0 °F 41.0 °F 93% 29.75 in 1.8 mi NW 8.1 mph - 0.00 in   Light Drizzle
6:53 PM 42.1 °F 36.6 °F 41.0 °F 96% 29.77 in 1.8 mi NW 9.2 mph - 0.01 in   Light Drizzle
7:30 PM 42.8 °F 37.0 °F 41.0 °F 93% 29.77 in 2.5 mi WNW 10.4 mph - 0.01 in   Light Drizzle
7:53 PM 42.1 °F 34.9 °F 41.0 °F 96% 29.80 in 2.0 mi West 13.8 mph - 0.01 in   Light Drizzle
8:20 PM 41.0 °F 34.7 °F 39.2 °F 93% 29.78 in 4.0 mi WNW 10.4 mph - 0.01 in   Light Drizzle
8:53 PM 39.9 °F 33.9 °F 39.0 °F 97% 29.80 in 4.0 mi WNW 9.2 mph - 0.04 in Rain Light Rain
9:53 PM 39.9 °F 34.5 °F 39.0 °F 97% 29.80 in 10.0 mi NW 8.1 mph - 0.03 in   Overcast
10:53 PM 39.0 °F 32.8 °F 39.0 °F 100% 29.81 in 10.0 mi WNW 9.2 mph - N/A   Overcast
11:53 PM 37.9 °F 28.9 °F 37.0 °F 97% 29.79 in 2.5 mi West 16.1 mph 21.9 mph 0.01 in   Overcast